Voltar ao catálogo

STARLINK-31658

AtivoComunicaçõesVLEO
NORAD 59513·PAYLOAD·🇺🇸 United States

Lançado Apr 17, 2024 de Cape Canaveral Space Force Station

Loading…

Próximas Passagens (próximas 24 horas)

TLE

AtualizadoSource: CelesTrak SupGP

Época: Sep 14, 2026, 20:51 UTC

1 59513C 24073C   26257.86923611 -.00013535  00000+0 -49015-3 0  2574
2 59513  43.0029 289.3625 0001455 294.1174  33.8859 15.27590520    14

Acompanhe STARLINK-31658 em tempo real com AllMySat

Download on the App Store